Change the Weather History Date:

Monday, September 16, 2013

  Actual Average Record
Temperature  
Mean Temperature 60 °F -  
Max Temperature 66 °F 61 °F 73 °F (2006)
Min Temperature 55 °F 43 °F 41 °F (1997)
Degree Days  
Heating Degree Days 4    
Growing Degree Days 10 (Base 50)    
Moisture  
Dew Point 58 °F    
Average Humidity 92    
Maximum Humidity 100    
Minimum Humidity 68    
Precipitation  
Precipitation 0.08 in 0.07 in - ()
Sea Level Pressure  
Sea Level Pressure 29.67 in    
Wind  
Wind Speed 2 mph ()    
Max Wind Speed 10 mph    
Max Gust Speed -    
Visibility 4.6 miles    
Events Fog , Rain    
Averages and records for this station are not official NWS values.
T = Trace of Precipitation, MM = Missing Value Source: Averaged Metar Reports

Daily Weather History Graph

Daily Weather History Graph

Search for Another Location

Airport or City:

Trip Planner

Search our weather history database for the weather conditions in past years. The results will help you decide how hot, cold, wet, or windy it might be!

Date:

Astronomy

Sep. 16, 2013 Rise Set
Actual Time 6:18 AM CEST 6:52 PM CEST
Civil Twilight 5:45 AM CEST 7:24 PM CEST
Nautical Twilight 5:06 AM CEST 8:03 PM CEST
Astronomical Twilight 4:25 AM CEST 8:43 PM CEST
Moon 5:01 PM CEST (9/16) 2:26 AM CEST (9/16)
Length of Visible Light 13h 39m
Length of Day
12h 34m
Waxing Gibbous, 88% of the Moon is Illuminated
Sep 16
Waxing Gibbous
Sep 19
Full
Sep 27
Last Quarter
Oct 5
New
Oct 12
First Quarter

Hourly Weather History & Observations

Time (CEST) Temp. Dew Point Humidity Pressure Visibility Wind Dir Wind Speed Gust Speed Precip Events Conditions
12:00 AM 59.0 °F 57.2 °F 94% 29.77 in 6.2 mi SW 2.3 mph - N/A   Mostly Cloudy
12:30 AM 59.0 °F 57.2 °F 94% 29.77 in 6.2 mi Calm Calm - N/A   Mostly Cloudy
1:00 AM 59.0 °F 57.2 °F 94% 29.74 in 6.2 mi Calm Calm - N/A   Mostly Cloudy
1:30 AM 57.2 °F 57.2 °F 100% 29.74 in 1.6 mi Calm Calm - N/A   Mostly Cloudy
2:00 AM 56 °F 56 °F 98% 29.75 in 0 mi Calm Calm - - Fog Partial Fog
2:00 AM 55.4 °F 55.4 °F 100% 29.74 in 0.5 mi Calm Calm - N/A Fog Fog
2:30 AM 57.2 °F 57.2 °F 100% 29.74 in 0.6 mi Calm Calm - N/A   Scattered Clouds
3:00 AM 57.2 °F 57.2 °F 100% 29.71 in 1.9 mi Calm Calm - N/A   Mostly Cloudy
3:30 AM 57.2 °F 57.2 °F 100% 29.71 in 1.9 mi Calm Calm - N/A   Scattered Clouds
4:00 AM 57.2 °F 57.2 °F 100% 29.71 in 1.2 mi Calm Calm - N/A   Partly Cloudy
4:30 AM 57.2 °F 57.2 °F 100% 29.71 in 1.2 mi Calm Calm - N/A   Mist
5:00 AM 57 °F 56 °F 97% 29.71 in 2 mi Calm Calm - - Rain Light Rain
5:00 AM 57.2 °F 57.2 °F 100% 29.68 in 1.6 mi Calm Calm - N/A Rain Light Rain
5:30 AM 57.2 °F 57.2 °F 100% 29.68 in 1.2 mi Calm Calm - N/A Rain Light Rain
6:00 AM 57.2 °F 57.2 °F 100% 29.68 in 1.6 mi Calm Calm - N/A Rain Light Rain
6:30 AM 57.2 °F 57.2 °F 100% 29.68 in 1.6 mi Calm Calm - N/A   Scattered Clouds
7:00 AM 57.2 °F 57.2 °F 100% 29.68 in 1.9 mi Calm Calm - N/A   Scattered Clouds
7:30 AM 57.2 °F 57.2 °F 100% 29.68 in 2.2 mi Calm Calm - N/A   Scattered Clouds
8:00 AM 57.2 °F 57.2 °F 100% 29.68 in 2.2 mi Calm Calm - N/A   Scattered Clouds
8:30 AM 57.2 °F 57.2 °F 100% 29.68 in 3.1 mi Calm Calm - N/A   Mostly Cloudy
9:00 AM 59.0 °F 59.0 °F 100% 29.68 in 5.0 mi Calm Calm - N/A   Mostly Cloudy
9:30 AM 59.0 °F 59.0 °F 100% 29.68 in 5.0 mi Calm Calm - N/A   Mostly Cloudy
10:00 AM 59.0 °F 59.0 °F 100% 29.68 in 6.2 mi SW 3.5 mph - N/A   Mostly Cloudy
10:30 AM 62.6 °F 59.0 °F 88% 29.68 in 6.2 mi SW 4.6 mph - N/A   Mostly Cloudy
11:00 AM 64 °F 59 °F 79% 29.68 in 9 mi WSW 6.7 mph - -   Mostly Cloudy
11:00 AM 62.6 °F 59.0 °F 88% 29.68 in 6.2 mi SW 5.8 mph - N/A   Mostly Cloudy
11:30 AM 64.4 °F 59.0 °F 83% 29.68 in 6.2 mi SW 6.9 mph - N/A   Scattered Clouds
12:00 PM 66.2 °F 57.2 °F 73% 29.68 in 6.2 mi WSW 8.1 mph - N/A   Scattered Clouds
12:30 PM 66.2 °F 55.4 °F 68% 29.68 in 6.2 mi WSW 9.2 mph - N/A   Scattered Clouds
1:00 PM 66.2 °F 57.2 °F 73% 29.65 in 6.2 mi WSW 10.4 mph - N/A   Mostly Cloudy
1:30 PM 66.2 °F 57.2 °F 73% 29.65 in 6.2 mi SW 5.8 mph - N/A   Mostly Cloudy
2:00 PM 65 °F 59 °F 76% 29.66 in 25 mi WSW 8.9 mph - - Rain Light Rain Showers
2:00 PM 64.4 °F 59.0 °F 83% 29.65 in 6.2 mi SW 8.1 mph - N/A   Mostly Cloudy
2:30 PM 66.2 °F 57.2 °F 73% 29.65 in 6.2 mi WSW 8.1 mph - N/A   Scattered Clouds
3:00 PM 66.2 °F 57.2 °F 73% 29.65 in 6.2 mi WSW 9.2 mph - N/A   Mostly Cloudy
3:30 PM 64.4 °F 57.2 °F 77% 29.65 in 6.2 mi WSW 8.1 mph - N/A   Scattered Clouds
4:00 PM 62.6 °F 59.0 °F 88% 29.65 in 6.2 mi SW 10.4 mph - N/A Rain Light Rain Showers
4:30 PM 60.8 °F 59.0 °F 94% 29.65 in 6.2 mi SW 4.6 mph - N/A Rain Light Rain Showers
5:00 PM 61 °F 58 °F 88% 29.65 in 19 mi SSE 2.2 mph - - Rain Light Rain Showers
5:00 PM 60.8 °F 59.0 °F 94% 29.65 in 6.2 mi Calm Calm - N/A   Partly Cloudy
5:30 PM 60.8 °F 59.0 °F 94% 29.65 in 6.2 mi Calm Calm - N/A   Partly Cloudy
6:00 PM 60.8 °F 59.0 °F 94% 29.65 in 6.2 mi SW 3.5 mph - N/A   Partly Cloudy
6:30 PM 60.8 °F 59.0 °F 94% 29.65 in - SW 4.6 mph - N/A   Clear
7:00 PM 60.8 °F 57.2 °F 88% 29.62 in - Variable 2.3 mph - N/A   Clear
7:30 PM 59.0 °F 57.2 °F 94% 29.62 in - Calm Calm - N/A   Clear
8:00 PM 59.0 °F 57.2 °F 94% 29.62 in - Calm Calm - N/A   Clear
8:30 PM 59.0 °F 57.2 °F 94% 29.62 in - Calm Calm - N/A   Clear
9:00 PM 57.2 °F 57.2 °F 100% 29.62 in - Calm Calm - N/A   Clear
9:30 PM 57.2 °F 57.2 °F 100% 29.59 in - Calm Calm - N/A   Clear
10:00 PM 57.2 °F 57.2 °F 100% 29.59 in - Calm Calm - N/A   Clear
10:30 PM 57.2 °F 57.2 °F 100% 29.59 in 5.0 mi Calm Calm - N/A Rain Light Rain
11:00 PM 58 °F 57 °F 94% 29.60 in 5 mi Calm Calm - - Rain Light Rain
11:00 PM 57.2 °F 57.2 °F 100% 29.59 in 5.0 mi Calm Calm - N/A Rain Light Rain
11:30 PM 57.2 °F 57.2 °F 100% 29.59 in 5.0 mi Calm Calm - N/A Rain Light Rain